Edwards AFB North Base, CA

8:28 PM PDT on April 21, 2018 (GMT -0700)
Edwards AFB North Base

Weather History for K9L2 - September, 2013

Change the Weather History Date:

Thursday, September 12, 2013

  Actual Average (KEDW) Record (KEDW)
Temperature  
Mean Temperature 78 °F -  
Max Temperature 95 °F 91 °F 99 °F (2007)
Min Temperature 63 °F 57 °F 48 °F (2005)
Cooling Degree Days 13    
Growing Degree Days 28 (Base 50)    
Moisture  
Dew Point 38 °F    
Average Humidity 26    
Maximum Humidity 46    
Minimum Humidity 9    
Precipitation  
Precipitation 0.00 in - - ()
Sea Level Pressure  
Sea Level Pressure 29.85 in    
Wind  
Wind Speed 7 mph (SW)    
Max Wind Speed 21 mph    
Max Gust Speed 24 mph    
Visibility 10 miles    
Events      
Averages and records for this station are not official NWS values.
T = Trace of Precipitation, MM = Missing Value Source: NWS Daily Summary

Daily Weather History Graph

Daily Weather History Graph

Search for Another Location

Airport or City:

Astronomy

Sep. 12, 2013 Rise Set
Actual Time 6:32 AM PDT 7:02 PM PDT
Civil Twilight 6:06 AM PDT 7:27 PM PDT
Nautical Twilight 5:37 AM PDT 7:57 PM PDT
Astronomical Twilight 5:06 AM PDT 8:27 PM PDT
Moon 1:49 PM PDT (9/12) No Moon Set
Length of Visible Light 13h 20m
Length of Day
12h 29m
Waxing Crescent, 51% of the Moon is Illuminated
Sep 12
Waxing Crescent
Sep 19
Full
Sep 26
Last Quarter
Oct 4
New
Oct 11
First Quarter

Hourly Weather History & Observations

Time (PDT) Temp. Dew Point Humidity Pressure Visibility Wind Dir Wind Speed Gust Speed Precip Events Conditions
12:55 AM 68.0 °F 41.0 °F 37% 29.88 in 10.0 mi South 9.2 mph - N/A   Clear
1:55 AM 71.1 °F 42.1 °F 35% 29.86 in 10.0 mi SW 9.2 mph - N/A   Clear
2:55 AM 70.0 °F 42.1 °F 36% 29.86 in 10.0 mi WSW 10.4 mph - N/A   Clear
3:55 AM 70.0 °F 41.0 °F 35% 29.86 in 10.0 mi WSW 5.8 mph - N/A   Clear
4:55 AM 66.9 °F 41.0 °F 39% 29.87 in 10.0 mi NE 3.5 mph - N/A   Clear
5:55 AM 64.9 °F 39.9 °F 40% 29.88 in 10.0 mi Calm Calm - N/A   Clear
6:55 AM 63.0 °F 42.1 °F 46% 29.90 in 10.0 mi SSW 8.1 mph - N/A   Clear
7:55 AM 69.1 °F 43.0 °F 39% 29.92 in 10.0 mi SSW 4.6 mph - N/A   Clear
8:55 AM 73.0 °F 39.9 °F 30% 29.92 in 10.0 mi South 3.5 mph - N/A   Clear
9:55 AM 77.0 °F 39.9 °F 26% 29.93 in 10.0 mi Calm Calm - N/A   Clear
10:55 AM 82.0 °F 39.0 °F 22% 29.91 in 10.0 mi ESE 4.6 mph - N/A   Clear
11:55 AM 84.9 °F 37.9 °F 19% 29.89 in 10.0 mi Calm Calm - N/A   Clear
12:55 PM 89.1 °F 35.1 °F 15% 29.86 in 10.0 mi Variable 4.6 mph - N/A   Clear
1:55 PM 91.0 °F 33.1 °F 13% 29.84 in 10.0 mi SSW 8.1 mph - N/A   Clear
2:55 PM 91.9 °F 28.9 °F 11% 29.81 in 10.0 mi Calm Calm - N/A   Clear
3:55 PM 93.9 °F 27.0 °F 9% 29.79 in 10.0 mi WSW 8.1 mph 24.2 mph N/A   Clear
4:55 PM 93.9 °F 27.0 °F 9% 29.78 in 10.0 mi WSW 10.4 mph - N/A   Clear
5:55 PM 91.0 °F 35.1 °F 14% 29.79 in 10.0 mi SW 20.7 mph - N/A   Clear
6:55 PM 86.0 °F 42.1 °F 21% 29.80 in 10.0 mi West 15.0 mph - N/A   Clear
7:55 PM 81.0 °F 41.0 °F 24% 29.82 in 10.0 mi WSW 8.1 mph - N/A   Clear
8:55 PM 80.1 °F 42.1 °F 26% 29.83 in 10.0 mi SW 11.5 mph - N/A   Clear
9:55 PM 77.0 °F 41.0 °F 28% 29.84 in 10.0 mi SW 8.1 mph - N/A   Clear
10:55 PM 75.9 °F 42.1 °F 30% 29.83 in 10.0 mi SSW 10.4 mph - N/A   Clear
11:55 PM 73.9 °F 39.0 °F 28% 29.83 in 10.0 mi SSW 9.2 mph - N/A   Clear